Bellefontaine, OH

4:36 AM EST on February 10, 2016 (GMT -0500)
Bellefontaine

Weather History for KEDJ - May, 2014

Change the Weather History Date:

Friday, May 23, 2014

  Actual Average (KDAY) Record (KDAY)
Temperature  
Mean Temperature 58 °F 64 °F  
Max Temperature 68 °F 73 °F 90 °F (1939)
Min Temperature 48 °F 54 °F 34 °F (1963)
Degree Days  
Heating Degree Days 7 4  
Month to date heating degree days 143  
Since 1 July heating degree days 5594  
Cooling Degree Days 0 3  
Month to date cooling degree days 35  
Year to date cooling degree days 45  
Growing Degree Days 8 (Base 50)    
Moisture  
Dew Point 46 °F    
Average Humidity 64    
Maximum Humidity 94    
Minimum Humidity 43    
Precipitation  
Precipitation 0.00 in 0.16 in 3.17 in (1989)
Month to date precipitation 3.45  
Year to date precipitation 15.83  
Snow  
Snow 0.00 in 0.00 in 0.00 in ()
Month to date snowfall 0.0  
Since 1 July snowfall 23.3  
Snow Depth -    
Sea Level Pressure  
Sea Level Pressure 30.10 in    
Wind  
Wind Speed 6 mph (NW)    
Max Wind Speed 16 mph    
Max Gust Speed 24 mph    
Visibility 10 miles    
Events      
T = Trace of Precipitation, MM = Missing Value Source: NWS Daily Summary

Daily Weather History Graph

Daily Weather History Graph

Search for Another Location

Airport or City:

Trip Planner

Search our weather history database for the weather conditions in past years. The results will help you decide how hot, cold, wet, or windy it might be!

Date:

Astronomy

May. 23, 2014 Rise Set
Actual Time 6:12 AM EDT 8:52 PM EDT
Civil Twilight 5:40 AM EDT 9:23 PM EDT
Nautical Twilight 5:01 AM EDT 10:03 PM EDT
Astronomical Twilight 4:16 AM EDT 10:48 PM EDT
Moon 3:07 AM EDT (5/23) 3:43 PM EDT (5/23)
Length of Visible Light 15h 42m
Length of Day
14h 39m
Waning Crescent, 27% of the Moon is Illuminated
May 23
Waning Crescent
May 28
New
Jun 5
First Quarter
Jun 13
Full
Jun 19
Last Quarter

Hourly Weather History & Observations

Time (EDT) Temp. Dew Point Humidity Pressure Visibility Wind Dir Wind Speed Gust Speed Precip Events Conditions
12:00 AM 55.4 °F 46.4 °F 72% 30.05 in 10.0 mi WNW 4.6 mph - 0.00 in   Clear
12:20 AM 53.6 °F 46.4 °F 77% 30.05 in 10.0 mi WNW 3.5 mph - 0.00 in   Clear
12:40 AM 53.6 °F 46.4 °F 77% 30.05 in 10.0 mi WNW 4.6 mph - 0.00 in   Clear
1:00 AM 53.6 °F 46.4 °F 77% 30.06 in 10.0 mi WNW 4.6 mph - 0.00 in   Clear
1:20 AM 53.6 °F 46.4 °F 77% 30.05 in 10.0 mi WNW 6.9 mph - 0.00 in   Clear
1:40 AM 53.6 °F 46.4 °F 77% 30.05 in 10.0 mi WNW 3.5 mph - 0.00 in   Clear
2:00 AM 51.8 °F 46.4 °F 82% 30.05 in 10.0 mi WNW 3.5 mph - 0.00 in   Clear
2:20 AM 51.8 °F 46.4 °F 82% 30.04 in 10.0 mi Calm Calm - 0.00 in   Clear
2:40 AM 51.8 °F 46.4 °F 82% 30.04 in 10.0 mi NW 3.5 mph - 0.00 in   Clear
3:00 AM 51.8 °F 46.4 °F 82% 30.04 in 10.0 mi Calm Calm - 0.00 in   Clear
3:20 AM 51.8 °F 46.4 °F 82% 30.04 in 10.0 mi Calm Calm - 0.00 in   Clear
3:40 AM 50.0 °F 46.4 °F 87% 30.04 in 10.0 mi NNW 4.6 mph - 0.00 in   Clear
4:00 AM 48.2 °F 46.4 °F 93% 30.05 in 10.0 mi Calm Calm - 0.00 in   Clear
4:40 AM 48.2 °F 46.4 °F 93% 30.05 in 10.0 mi Calm Calm - 0.00 in   Clear
5:00 AM - - N/A% - - North - - 0.00 in   Unknown
5:15 AM - - N/A% - - North - - 0.00 in   Unknown
5:30 AM - - N/A% - - North - - 0.00 in   Unknown
6:00 AM - - N/A% - - North - - 0.00 in   Unknown
6:20 AM - - N/A% - - North - - 0.00 in   Unknown
6:35 AM - - N/A% - - North - - 0.00 in   Unknown
6:55 AM - - N/A% - - North - - 0.00 in   Unknown
7:10 AM - - N/A% - - North - - 0.00 in   Unknown
7:40 AM - - N/A% - - North - - 0.00 in   Unknown
11:20 AM 62.6 °F 44.6 °F 52% 30.13 in 10.0 mi North 16.1 mph 20.7 mph 0.00 in   Clear
11:35 AM 62.6 °F 44.6 °F 52% 30.13 in 10.0 mi NW 11.5 mph 20.7 mph 0.00 in   Partly Cloudy
11:55 AM 62.6 °F 42.8 °F 48% 30.13 in 10.0 mi NW 11.5 mph - 0.00 in   Clear
12:35 PM 62.6 °F 44.6 °F 52% 30.14 in 10.0 mi NNW 15.0 mph 20.7 mph 0.00 in   Clear
12:55 PM 62.6 °F 44.6 °F 52% 30.13 in 10.0 mi NNW 16.1 mph 20.7 mph 0.00 in   Clear
1:15 PM 64.4 °F 44.6 °F 49% 30.13 in 10.0 mi NNW 8.1 mph - 0.00 in   Clear
1:35 PM 64.4 °F 46.4 °F 52% 30.13 in 10.0 mi NNW 15.0 mph 21.9 mph 0.00 in   Partly Cloudy
1:55 PM 64.4 °F 46.4 °F 52% 30.13 in 10.0 mi NNW 10.4 mph 24.2 mph 0.00 in   Partly Cloudy
2:15 PM 64.4 °F 46.4 °F 52% 30.13 in 10.0 mi NNW 11.5 mph 19.6 mph 0.00 in   Partly Cloudy
2:55 PM 66.2 °F 46.4 °F 49% 30.12 in 10.0 mi NW 9.2 mph 20.7 mph 0.00 in   Partly Cloudy
3:15 PM 66.2 °F 46.4 °F 49% 30.12 in 10.0 mi NNW 12.7 mph - 0.00 in   Partly Cloudy
3:35 PM 66.2 °F 44.6 °F 46% 30.12 in 10.0 mi WNW 10.4 mph 18.4 mph 0.00 in   Partly Cloudy
3:55 PM 66.2 °F 46.4 °F 49% 30.12 in 10.0 mi NW 11.5 mph 17.3 mph 0.00 in   Partly Cloudy
4:15 PM 66.2 °F 46.4 °F 49% 30.12 in 10.0 mi NNW 12.7 mph - 0.00 in   Partly Cloudy
4:35 PM 66.2 °F 46.4 °F 49% 30.11 in 10.0 mi NW 10.4 mph 16.1 mph 0.00 in   Scattered Clouds
4:55 PM 68.0 °F 46.4 °F 46% 30.11 in 10.0 mi North 10.4 mph - 0.00 in   Scattered Clouds
5:15 PM 68.0 °F 46.4 °F 46% 30.11 in 10.0 mi NNW 6.9 mph 18.4 mph 0.00 in   Scattered Clouds
5:35 PM 68.0 °F 46.4 °F 46% 30.11 in 10.0 mi NW 10.4 mph 16.1 mph 0.00 in   Partly Cloudy
5:55 PM 68.0 °F 44.6 °F 43% 30.11 in 10.0 mi WNW 12.7 mph 16.1 mph 0.00 in   Partly Cloudy
6:15 PM 68.0 °F 46.4 °F 46% 30.11 in 10.0 mi NNW 9.2 mph - 0.00 in   Clear
6:35 PM 66.2 °F 44.6 °F 46% 30.12 in 10.0 mi North 10.4 mph - 0.00 in   Clear
6:55 PM 66.2 °F 46.4 °F 49% 30.11 in 10.0 mi WNW 9.2 mph - 0.00 in   Clear
7:15 PM 66.2 °F 44.6 °F 46% 30.11 in 10.0 mi North 8.1 mph - 0.00 in   Clear
7:35 PM 66.2 °F 44.6 °F 46% 30.11 in 10.0 mi NNW 11.5 mph - 0.00 in   Partly Cloudy
7:55 PM 66.2 °F 46.4 °F 49% 30.11 in 10.0 mi NNW 8.1 mph - 0.00 in   Partly Cloudy
8:15 PM 64.4 °F 46.4 °F 52% 30.11 in 10.0 mi North 6.9 mph - 0.00 in   Clear
8:35 PM 62.6 °F 46.4 °F 55% 30.11 in 10.0 mi NNE 8.1 mph - 0.00 in   Clear
8:55 PM 60.8 °F 46.4 °F 59% 30.12 in 10.0 mi Calm Calm - 0.00 in   Clear
9:15 PM 57.2 °F 46.4 °F 67% 30.12 in 10.0 mi Calm Calm - 0.00 in   Clear
9:35 PM 57.2 °F 46.4 °F 67% 30.13 in 10.0 mi Calm Calm - 0.00 in   Clear
9:55 PM 55.4 °F 48.2 °F 77% 30.13 in 10.0 mi Calm Calm - 0.00 in   Clear
10:15 PM 55.4 °F 48.2 °F 77% 30.13 in 10.0 mi NNE 3.5 mph - 0.00 in   Clear
10:35 PM 53.6 °F 48.2 °F 82% 30.13 in 10.0 mi Calm Calm - 0.00 in   Clear
10:55 PM 53.6 °F 48.2 °F 82% 30.13 in 10.0 mi Calm Calm - 0.00 in   Clear
11:15 PM 51.8 °F 48.2 °F 88% 30.13 in 10.0 mi Calm Calm - 0.00 in   Clear
11:35 PM 53.6 °F 50.0 °F 88% 30.14 in 10.0 mi Calm Calm - 0.00 in   Mostly Cloudy
11:55 PM 53.6 °F 51.8 °F 94% 30.14 in 10.0 mi Calm Calm - 0.00 in   Mostly Cloudy